This is the latest recevied weather packets stored in our database for station/object KD9ZDW. If no packets are shown the sender has not sent any weather packets the latest 10 day(s).
| Time | Temp. | Humidity | Pressure | Rain* | Wind** | Luminosity | Snow |
|---|---|---|---|---|---|---|---|
| 1777878533 | 6.11° C | 91% | 1009.8 hPa | 0 mm | - | 0 W/m² | - |
| 1777878230 | 6.11° C | 91% | 1010 hPa | 0 mm | - | 0 W/m² | - |
| 1777877926 | 6.11° C | 91% | 1010.1 hPa | 0 mm | - | 0 W/m² | - |
| 1777877623 | 6.11° C | 91% | 1010.2 hPa | 0 mm | - | 0 W/m² | - |
| 1777877319 | 6.11° C | 91% | 1010.2 hPa | 0 mm | - | 0 W/m² | - |
| 1777877017 | 6.11° C | 91% | 1010.4 hPa | 0 mm | - | 0 W/m² | - |
| 1777876715 | 5.56° C | 91% | 1010.2 hPa | 0 mm | - | 0 W/m² | - |
| 1777876412 | 5.56° C | 90% | 1010.4 hPa | 0 mm | - | 0 W/m² | - |
| 1777876108 | 5.56° C | 90% | 1010.2 hPa | 0 mm | - | 0 W/m² | - |
| 1777875804 | 6.11° C | 90% | 1010.4 hPa | 0 mm | - | 0 W/m² | - |
| 1777875500 | 6.11° C | 90% | 1010.6 hPa | 0 mm | - | 0 W/m² | - |
| 1777875197 | 6.11° C | 89% | 1010.4 hPa | 0 mm | - | 0 W/m² | - |
| 1777874895 | 6.11° C | 89% | 1010.7 hPa | 0 mm | - | 0 W/m² | - |
| 1777874590 | 6.11° C | 89% | 1010.4 hPa | 0 mm | - | 0 W/m² | - |
| 1777874288 | 6.11° C | 88% | 1010.6 hPa | 0 mm | - | 0 W/m² | - |
| 1777873985 | 6.11° C | 88% | 1010.7 hPa | 0 mm | - | 0 W/m² | - |
| 1777873682 | 6.67° C | 88% | 1010.7 hPa | 0 mm | - | 0 W/m² | - |
| 1777873380 | 6.67° C | 88% | 1011 hPa | 0 mm | - | 0 W/m² | - |
| 1777873076 | 6.67° C | 87% | 1011 hPa | 0 mm | - | 0 W/m² | - |
| 1777872773 | 6.67° C | 86% | 1011 hPa | 0 mm | - | 0 W/m² | - |
| 1777872470 | 7.22° C | 84% | 1011 hPa | 0 mm | - | 0 W/m² | - |
| 1777872169 | 7.78° C | 84% | 1011 hPa | 0 mm | - | 0 W/m² | - |
| 1777871865 | 7.78° C | 83% | 1011 hPa | 0 mm | - | 0 W/m² | - |
| 1777871561 | 7.78° C | 82% | 1011 hPa | 0 mm | - | 0 W/m² | - |
| 1777871258 | 7.78° C | 82% | 1011.1 hPa | 0 mm | - | 0 W/m² | - |
* Rain latest hour (hover to see other rain measurements)
** Current wind speed in m/s (hover to see current wind gust speed)